Location: Baia de Cri?
(46.1667°N, 22.7167°E)
Time: 22:00:06
(UTC+00:00)

Cosmos 1269 Rocket - Pass Details

Date: 15 January 2026
Orbit: 769 x 775 km, 74.1° (Epoch: 10 February)

Event Time Altitude Azimuth Distance (km) Brightness Sun altitude
Rises 04:34:12 0° 202° (SSW) 3,237 7.2 -15.8°
Reaches altitude 10° 04:36:34 10° 203° (SSW) 2,315 6.4 -15.4°
Maximum altitude 04:41:50 83° 291° (WNW) 786 3.9 -14.5°
Drops below altitude 10° 04:47:09 10° 20° (NNE) 2,333 6.6 -13.6°
Sets 04:49:33 0° 22° (NNE) 3,264 7.3 -13.2°
